Regional Weather Roundup
Issued by NWS Sioux Falls, SD

Home | Current Version | Previous Version | Text Only | Print | Product List | Glossary On
Versions: 1 2 3 4 5 6 7 8 9 10 11 12 13 14 15 16 17 18 19 20 21 22 23 24 25 26 27 28 29 30 31 32 33 34 35 36 37 38 39 40 41 42 43 44 45 46 47 48 49 50
000
ASUS43 KFSD 120110
RWRFSD

WEATHER ROUNDUP FOR SE SOUTH DAKOTA/SW MINNESOTA/NW IOWA
NATIONAL WEATHER SERVICE SIOUX FALLS SD
700 PM CST THU FEB 11 2016

NOTE: "FAIR" INDICATES FEW OR NO CLOUDS BELOW 12,000 FEET WITH NO
SIGNIFICANT WEATHER AND OR OBSTRUCTIONS TO VISIBILITY.


SDZ038>040-050-052>070-120200-
SOUTHEAST SOUTH DAKOTA

CITY           SKY/WX    TMP DP  RH WIND       PRES   REMARKS
BROOKINGS      FLURRIES  15  12  88 CALM      30.17R
CHAMBERLAIN    CLOUDY    24  22  94 CALM      30.19R
HURON          CLOUDY    21  17  84 CALM      30.20R
MADISON        CLOUDY    14  14 100 S3        30.17R
MITCHELL       PTCLDY    18  15  88 E5        30.21R WCI  11
SIOUX FALLS    LGT SNOW  16  13  88 CALM      30.19R FOG
WINNER         CLOUDY    29  25  85 NE13      30.15R WCI  19
YANKTON        CLOUDY    19  16  86 E6        30.19R WCI  11
$$

MNZ071-072-080-081-089-090-097-098-120200-
SOUTHWEST MINNESOTA

CITY           SKY/WX    TMP DP  RH WIND       PRES   REMARKS
FAIRMONT       PTCLDY    12   5  73 S10       30.20S WCI  -1
JACKSON        FLURRIES  12   9  85 S9        30.20R WCI   0
LUVERNE        LGT SNOW  18  14  86 S3        30.20S
MARSHALL       CLOUDY    13  10  88 SW6       30.22R WCI   4
MONTEVIDEO     CLOUDY    14   9  79 CALM      30.24R
PIPESTONE      MIX PCPN  14   7  73 CALM      30.17R
REDWOOD FALLS  CLOUDY    16  12  84 S5        30.23R WCI   9
TRACY          CLEAR     14  11  88 CALM      30.21R
WINDOM         FLURRIES  12   9  85 S5        30.19S WCI   4
WORTHINGTON    CLOUDY    12   9  85 S7        30.20R WCI   2
$$

IAZ001>003-012>014-020>022-031-032-NEZ013-014-SDZ071-120200-
NORTHWEST IOWA

CITY           SKY/WX    TMP DP  RH WIND       PRES   REMARKS
CHEROKEE       LGT SNOW  15  13  92 S6        30.21S WCI   6
DENISON        LGT SNOW  18  16  93 E5        30.20R WCI  11
ESTHERVILLE    LGT SNOW  11   9  92 S12       30.21R FOG     WCI  -3
LE MARS        CLOUDY    18  18 100 SE6       30.22R FOG     WCI   9
ORANGE CITY    LGT SNOW  16  16 100 CALM      30.19R
SHELDON        CLOUDY    14  12  92 S6        30.19R WCI   5
SIOUX CITY     LGT SNOW  20  15  81 E8        30.21S WCI  10
SPENCER        FLURRIES  14   9  80 S8        30.21R WCI   3
STORM LAKE     CLOUDY    14  14 100 SE9       30.20S FOG     WCI   2
$$

ABBREVIATIONS USED IN REMARKS
   TC - TEMPERATURE IN CELSIUS
  WCI - WIND CHILL INDEX
   HX - HEAT INDEX
  VSB - VISIBILITY




USA.gov is the U.S. government's official web portal to all federal, state and local government web resources and services.